�N����,����,�~����,�C��,���x,�C��,����,���ϕ���,�ő�u�ԕ���,�ő厞����,���˗�,�I�_���x,�n�����x,�ő啗���N��,DTYPE
"23/08/12","00:10",0.0,25.4,82.4,999.6,296.3,0.7,1.2,312.6,0.00,22.2,26.3,"00:06:56",1
"23/08/12","00:20",0.0,25.4,82.6,999.6,311.3,1.1,1.9,321.8,0.00,22.3,26.1,"00:15:44",1
"23/08/12","00:30",0.0,25.2,83.0,999.3,321.9,0.7,1.3,310.7,0.00,22.1,25.8,"00:20:08",1
"23/08/12","00:40",0.0,25.1,83.3,999.8,306.3,0.8,1.6,320.5,0.00,22.1,26.0,"00:35:12",1
"23/08/12","00:50",0.0,25.1,83.7,999.6,321.8,0.7,1.3,333.0,0.00,22.2,25.8,"00:42:56",1
"23/08/12","01:00",0.0,24.9,84.3,999.3,324.5,0.8,1.4,308.9,0.00,22.1,25.8,"00:56:32",1
"23/08/12","01:10",0.0,24.9,84.8,999.1,319.5,1.0,2.5,341.2,0.00,22.2,25.9,"01:04:08",1
"23/08/12","01:20",0.0,24.9,85.2,999.1,310.7,0.8,1.4,327.8,0.00,22.3,25.8,"01:15:20",1
"23/08/12","01:30",0.0,24.9,85.5,998.9,290.8,0.8,1.6,318.9,0.00,22.3,25.7,"01:26:08",1
"23/08/12","01:40",0.0,24.8,85.7,999.1,310.1,0.7,1.7,345.3,0.00,22.3,25.7,"01:30:24",1
"23/08/12","01:50",0.0,24.7,85.9,999.3,333.3,0.8,2.2,324.9,0.00,22.2,25.7,"01:42:00",1
"23/08/12","02:00",0.0,24.5,86.1,999.1,331.0,1.0,1.3,351.6,0.00,22.1,25.7,"01:51:52",1
"23/08/12","02:10",0.0,24.1,86.5,999.3,325.8,0.6,0.9,331.1,0.00,21.7,25.7,"02:01:12",1
"23/08/12","02:20",0.0,24.0,87.1,999.3,295.0,0.7,1.3,336.3,0.00,21.8,25.6,"02:17:28",1
"23/08/12","02:30",0.0,24.2,87.6,998.9,296.1,1.0,1.6,312.0,0.00,22.1,25.6,"02:29:20",1
"23/08/12","02:40",0.0,24.1,87.8,999.1,286.6,0.7,1.3,302.7,0.00,22.0,25.7,"02:31:12",1
"23/08/12","02:50",0.0,24.0,88.1,999.1,320.5,0.6,1.2,328.0,0.00,21.9,25.5,"02:49:52",1
"23/08/12","03:00",0.0,24.0,88.5,998.9,322.5,1.0,1.4,345.5,0.00,22.0,25.6,"02:57:44",1
"23/08/12","03:10",0.0,24.0,88.8,999.1,332.1,1.1,1.9,323.8,0.00,22.1,25.4,"03:07:52",1
"23/08/12","03:20",0.0,24.1,89.1,998.9,327.4,1.2,2.2,332.0,0.00,22.2,25.5,"03:13:36",1
"23/08/12","03:30",0.0,24.1,89.1,999.1,320.8,0.8,2.1,325.7,0.00,22.2,25.4,"03:22:00",1
"23/08/12","03:40",0.0,23.8,89.3,999.1,290.1,0.3,0.8,255.6,0.00,22.0,25.4,"03:35:12",1
"23/08/12","03:50",0.0,23.8,89.4,999.1,322.9,0.7,1.4,337.8,0.00,22.0,25.4,"03:45:12",1
"23/08/12","04:00",0.0,23.6,89.6,999.1,317.4,1.0,1.6,317.8,0.00,21.8,25.4,"03:51:12",1
"23/08/12","04:10",0.0,23.4,89.8,999.3,299.5,0.7,1.1,321.6,0.00,21.7,25.4,"04:01:44",1
"23/08/12","04:20",0.0,23.4,90.1,999.3,286.4,0.8,1.6,307.0,0.00,21.7,25.3,"04:16:56",1
"23/08/12","04:30",0.0,23.3,90.2,999.3,303.5,0.5,0.9,317.3,0.00,21.6,25.3,"04:20:16",1
"23/08/12","04:40",0.0,23.3,90.5,999.3,317.5,0.8,1.2,265.5,0.00,21.7,25.3,"04:30:16",1
"23/08/12","04:50",0.0,23.4,90.8,999.3,314.7,0.7,1.4,359.9,0.00,21.9,25.2,"04:42:40",1
"23/08/12","05:00",0.0,23.2,90.8,999.8,291.2,0.3,0.6,299.1,0.00,21.7,25.1,"04:57:04",1
"23/08/12","05:10",0.0,23.4,91.2,999.8,304.7,1.0,1.7,307.8,0.00,21.9,25.2,"05:06:00",1
"23/08/12","05:20",0.0,23.5,91.4,999.6,299.9,1.1,1.7,333.4,0.00,22.1,25.2,"05:16:00",1
"23/08/12","05:30",0.0,23.6,91.5,999.8,309.2,1.0,1.3,325.2,0.00,22.2,25.2,"05:26:56",1
"23/08/12","05:40",0.0,23.6,91.7,999.3,334.5,1.0,1.4,340.9,0.00,22.2,25.0,"05:39:44",1
"23/08/12","05:50",0.0,23.8,91.9,999.3,340.9,1.3,2.1,349.3,0.00,22.4,24.9,"05:41:04",1
"23/08/12","06:00",0.0,23.9,91.9,999.3,335.3,1.5,2.4,344.4,0.00,22.5,25.1,"05:55:12",1
"23/08/12","06:10",0.0,24.3,92.0,999.3,323.6,1.2,2.0,334.1,0.01,23.0,25.1,"06:09:20",1
"23/08/12","06:20",0.0,24.7,91.7,999.6,343.2,1.3,2.0,342.1,0.02,23.3,25.0,"06:10:32",1
"23/08/12","06:30",0.0,25.2,91.4,999.8,334.7,0.8,1.9,336.7,0.04,23.7,25.0,"06:21:44",1
"23/08/12","06:40",0.0,25.9,90.7,999.6,355.1,0.6,1.3,348.8,0.05,24.3,24.9,"06:37:20",1
"23/08/12","06:50",0.0,26.6,89.3,999.6,14.4,0.8,2.1,10.6,0.07,24.7,25.0,"06:44:48",1
"23/08/12","07:00",0.0,27.4,87.4,999.6,13.4,0.5,1.2,42.0,0.09,25.2,24.9,"06:50:40",1
"23/08/12","07:10",0.0,28.2,85.1,999.3,1.3,0.3,0.9,56.1,0.11,25.5,25.1,"07:02:32",1
"23/08/12","07:20",0.0,29.1,81.6,998.9,19.5,0.2,0.8,27.4,0.14,25.7,24.9,"07:12:16",1
"23/08/12","07:30",0.0,29.8,77.4,998.9,85.1,0.6,1.2,30.5,0.16,25.5,25.1,"07:28:56",1
"23/08/12","07:40",0.0,30.4,74.2,999.1,32.6,0.5,1.6,12.6,0.18,25.3,25.0,"07:37:04",1
"23/08/12","07:50",0.0,30.7,72.9,999.1,97.9,0.6,1.7,159.9,0.20,25.3,25.1,"07:45:12",1
"23/08/12","08:00",0.0,31.0,71.8,1000.0,88.8,0.7,2.0,116.3,0.23,25.3,25.3,"07:52:56",1
"23/08/12","08:10",0.0,31.4,70.0,1000.0,63.2,0.7,1.9,31.4,0.25,25.3,25.2,"08:09:12",1
"23/08/12","08:20",0.0,31.6,69.0,1000.3,37.7,0.8,1.6,32.1,0.27,25.3,25.2,"08:12:16",1
"23/08/12","08:30",0.0,31.7,68.3,1000.5,43.0,1.0,2.1,6.5,0.29,25.2,25.3,"08:25:04",1
"23/08/12","08:40",0.0,32.2,66.9,1000.3,43.0,0.7,2.1,10.2,0.32,25.3,25.0,"08:38:56",1
"23/08/12","08:50",0.0,32.4,66.3,1000.8,136.3,0.8,2.4,191.4,0.34,25.3,25.4,"08:42:24",1
"23/08/12","09:00",0.0,33.0,64.8,1001.0,109.6,0.8,2.4,25.9,0.36,25.5,25.4,"08:53:52",1
"23/08/12","09:10",0.0,33.4,63.3,1001.0,128.0,0.7,2.5,195.8,0.38,25.5,25.7,"09:08:00",1
"23/08/12","09:20",0.0,33.5,61.9,1001.2,176.1,1.0,2.7,132.7,0.40,25.2,25.6,"09:14:00",1
"23/08/12","09:30",0.0,33.6,60.6,1001.2,119.7,1.2,3.2,115.8,0.42,25.0,25.5,"09:22:00",1
"23/08/12","09:40",0.0,34.2,58.2,1001.2,173.7,1.1,4.1,236.4,0.43,24.8,25.8,"09:38:40",1
"23/08/12","09:50",0.0,34.2,58.4,1001.0,211.7,1.5,4.3,190.2,0.46,24.9,26.1,"09:44:00",1
"23/08/12","10:00",0.0,34.8,55.6,1001.0,34.5,1.5,4.0,130.2,0.47,24.6,26.0,"09:54:16",1
"23/08/12","10:10",0.0,34.9,54.9,1000.8,231.4,1.3,3.1,224.2,0.48,24.5,26.1,"10:04:00",1
"23/08/12","10:20",0.0,35.6,53.6,1001.2,353.1,1.0,4.0,312.9,0.51,24.8,26.1,"10:17:52",1
"23/08/12","10:30",0.0,35.5,52.1,1001.0,199.0,1.5,3.6,234.9,0.50,24.2,26.3,"10:28:40",1
"23/08/12","10:40",0.0,35.2,53.5,1000.8,236.1,1.6,4.1,224.8,0.44,24.4,26.5,"10:34:00",1
"23/08/12","10:50",0.0,35.6,52.3,1000.5,224.9,1.3,3.2,234.3,0.54,24.4,26.5,"10:43:20",1
"23/08/12","11:00",0.0,36.4,49.8,1001.0,143.8,1.1,2.5,181.9,0.49,24.3,26.5,"10:50:08",1
"23/08/12","11:10",0.0,35.4,50.3,1000.3,353.4,1.3,2.7,330.7,0.34,23.5,26.7,"11:03:52",1
"23/08/12","11:20",0.0,36.6,48.1,1000.5,83.4,1.0,3.3,3.3,0.49,23.9,26.9,"11:17:52",1
"23/08/12","11:30",0.0,37.2,44.8,1000.3,309.1,1.1,3.5,231.8,0.56,23.2,26.8,"11:28:24",1
"23/08/12","11:40",0.0,37.2,45.4,1000.3,323.9,1.3,2.9,359.0,0.59,23.5,27.2,"11:37:04",1
"23/08/12","11:50",0.0,37.7,44.2,1000.3,320.9,1.1,2.9,224.4,0.59,23.5,27.3,"11:42:24",1
"23/08/12","12:00",0.0,37.6,44.3,999.8,339.4,1.0,3.4,128.4,0.43,23.4,27.4,"11:58:00",1
"23/08/12","12:10",0.0,37.4,44.0,999.8,321.0,1.5,4.2,336.2,0.61,23.1,27.3,"12:05:44",1
"23/08/12","12:20",0.0,38.5,40.3,999.8,69.0,1.0,3.3,359.8,0.53,22.7,27.6,"12:14:00",1
"23/08/12","12:30",0.0,37.0,41.2,999.8,7.8,1.2,3.4,48.9,0.10,21.7,27.7,"12:24:16",1
"23/08/12","12:40",0.0,37.8,41.0,999.6,110.6,0.8,2.4,135.4,0.50,22.3,27.7,"12:39:52",1
"23/08/12","12:50",0.0,37.9,40.0,999.6,350.6,1.7,5.1,330.4,0.53,22.0,27.7,"12:47:52",1
"23/08/12","13:00",0.0,38.0,38.0,999.6,332.5,1.7,3.4,352.2,0.58,21.3,27.9,"12:54:16",1
"23/08/12","13:10",0.0,39.0,35.1,999.3,353.1,1.3,3.4,357.5,0.57,20.8,28.2,"13:06:56",1
"23/08/12","13:20",0.0,38.9,33.8,999.3,28.3,1.5,3.6,44.3,0.54,20.1,28.1,"13:17:04",1
"23/08/12","13:30",0.0,38.6,33.7,999.1,11.3,2.1,4.8,25.3,0.53,19.8,28.2,"13:28:32",1
"23/08/12","13:40",0.0,38.6,34.0,998.9,18.0,2.0,4.7,26.5,0.51,20.0,28.3,"13:33:28",1
"23/08/12","13:50",0.0,38.6,32.7,998.9,6.9,2.0,4.9,337.9,0.50,19.3,28.6,"13:43:20",1
"23/08/12","14:00",0.0,38.9,34.1,998.9,9.5,1.6,3.3,357.5,0.49,20.3,28.4,"13:59:12",1
"23/08/12","14:10",0.0,38.7,34.3,998.6,4.3,2.1,5.1,339.5,0.47,20.2,28.7,"14:01:52",1
"23/08/12","14:20",0.0,38.7,33.3,998.4,30.0,1.7,4.3,16.3,0.45,19.7,28.6,"14:11:12",1
"23/08/12","14:30",0.0,38.5,32.9,998.9,1.6,2.1,4.9,353.6,0.43,19.4,28.7,"14:25:52",1
"23/08/12","14:40",0.0,38.2,35.3,998.4,347.3,2.2,4.3,7.0,0.42,20.2,28.7,"14:36:16",1
"23/08/12","14:50",0.0,38.1,34.5,997.9,9.6,2.0,3.6,355.0,0.39,19.8,28.8,"14:44:08",1
"23/08/12","15:00",0.0,37.9,35.2,998.2,10.6,2.2,5.2,43.6,0.38,19.9,28.8,"14:54:40",1
"23/08/12","15:10",0.0,37.6,36.6,997.9,356.3,2.3,4.8,345.3,0.36,20.3,28.9,"15:07:20",1
"23/08/12","15:20",0.0,37.8,38.1,998.2,359.1,2.0,4.9,339.7,0.34,21.1,28.8,"15:11:12",1
"23/08/12","15:30",0.0,37.6,36.3,997.9,1.2,2.0,4.7,24.9,0.32,20.2,29.0,"15:27:36",1
"23/08/12","15:40",0.0,37.2,37.6,997.4,358.4,2.3,4.5,337.9,0.30,20.4,28.8,"15:38:40",1
"23/08/12","15:50",0.0,36.7,38.8,997.2,350.6,2.6,5.5,13.6,0.28,20.4,28.7,"15:48:00",1
"23/08/12","16:00",0.0,36.6,38.7,997.0,355.6,2.5,4.7,347.7,0.25,20.3,28.9,"15:50:08",1
"23/08/12","16:10",0.0,36.4,39.0,997.0,349.1,2.3,4.7,329.3,0.23,20.3,28.8,"16:06:08",1
"23/08/12","16:20",0.0,36.6,39.1,997.0,10.2,2.2,4.3,329.6,0.21,20.5,28.8,"16:11:20",1
"23/08/12","16:30",0.0,36.3,40.1,997.0,25.6,2.2,4.3,52.2,0.19,20.6,28.8,"16:20:56",1
"23/08/12","16:40",0.0,36.4,39.7,997.2,15.6,1.6,4.7,4.8,0.17,20.5,28.7,"16:30:02",1
"23/08/12","16:50",0.0,36.1,40.0,996.7,6.2,2.0,4.0,336.6,0.14,20.4,28.9,"16:40:16",1
"23/08/12","17:00",0.0,35.8,40.6,996.5,11.5,1.7,4.3,25.9,0.12,20.4,28.7,"16:50:40",1
"23/08/12","17:10",0.0,35.6,42.0,997.0,355.1,1.7,3.5,340.7,0.10,20.7,28.8,"17:08:12",1
"23/08/12","17:20",0.0,35.3,43.5,996.7,348.1,1.5,3.7,347.7,0.08,21.0,28.7,"17:10:24",1
"23/08/12","17:30",0.0,35.1,44.7,997.0,338.2,1.5,3.4,345.0,0.06,21.3,28.6,"17:29:12",1
"23/08/12","17:40",0.0,34.2,47.3,996.5,343.9,2.2,4.5,344.1,0.04,21.4,28.6,"17:31:20",1
"23/08/12","17:50",0.0,33.7,49.0,996.5,341.6,1.8,3.7,347.3,0.01,21.5,28.5,"17:48:40",1
"23/08/12","18:00",0.0,32.8,50.9,996.3,347.7,2.3,5.1,327.2,0.00,21.3,28.5,"17:50:16",1
"23/08/12","18:10",0.0,32.4,52.2,995.8,350.0,2.1,5.2,349.9,0.00,21.4,28.5,"18:03:04",1
"23/08/12","18:20",0.0,32.0,52.9,995.6,345.9,2.2,4.8,357.9,0.00,21.2,28.5,"18:13:44",1
"23/08/12","18:30",0.0,31.4,54.3,995.3,347.9,2.1,4.5,349.8,0.00,21.1,28.2,"18:21:52",1
"23/08/12","18:40",0.0,30.9,55.7,995.3,346.2,2.0,4.4,351.6,0.00,21.1,28.2,"18:38:56",1
"23/08/12","18:50",0.0,30.6,56.4,995.3,346.1,2.2,4.4,354.5,0.00,21.0,27.9,"18:43:44",1
"23/08/12","19:00",0.0,30.5,56.8,995.3,338.5,2.3,4.5,309.1,0.00,21.0,27.9,"18:55:36",1
"23/08/12","19:10",0.0,30.2,57.7,995.1,349.0,2.1,4.3,344.4,0.00,21.0,27.9,"19:09:12",1
"23/08/12","19:20",0.0,29.9,59.1,995.3,347.5,1.8,4.0,354.0,0.00,21.1,27.8,"19:10:16",1
"23/08/12","19:30",0.0,29.6,60.1,995.1,346.7,1.2,2.7,358.0,0.00,21.1,27.9,"19:24:48",1
"23/08/12","19:40",0.0,29.3,60.7,995.6,350.8,1.5,3.7,323.8,0.00,21.0,27.7,"19:38:08",1
"23/08/12","19:50",0.0,29.0,61.0,996.0,351.9,1.6,3.6,7.8,0.00,20.8,27.7,"19:44:40",1
"23/08/12","20:00",0.0,28.9,61.4,996.7,342.8,1.6,3.9,348.2,0.00,20.8,27.6,"19:54:16",1
"23/08/12","20:10",0.0,28.8,62.7,996.3,351.5,1.6,3.9,331.8,0.00,21.0,27.7,"20:02:16",1
"23/08/12","20:20",0.0,28.7,64.5,996.5,345.7,2.0,3.7,344.1,0.00,21.4,27.4,"20:10:24",1
"23/08/12","20:30",0.0,28.6,66.0,996.5,346.9,2.3,4.9,356.9,0.00,21.7,27.4,"20:23:36",1
"23/08/12","20:40",0.0,28.5,67.1,997.0,349.6,2.0,4.0,337.3,0.00,21.8,27.4,"20:30:56",1
"23/08/12","20:50",0.0,28.3,68.3,997.4,347.7,1.7,4.8,342.2,0.00,21.9,27.3,"20:42:56",1
"23/08/12","21:00",0.0,28.0,69.7,996.7,332.3,1.5,3.4,345.6,0.00,22.0,27.3,"20:54:40",1
"23/08/12","21:10",0.0,27.8,71.1,997.0,323.6,1.2,2.5,327.8,0.00,22.1,27.4,"21:01:12",1
"23/08/12","21:20",0.0,27.6,72.4,997.0,339.3,1.1,2.1,322.1,0.00,22.2,27.2,"21:14:00",1
"23/08/12","21:30",0.0,27.4,73.5,997.4,331.3,1.1,2.4,340.1,0.00,22.3,27.0,"21:29:20",1
"23/08/12","21:40",0.0,27.4,74.1,997.2,342.6,1.3,3.1,341.9,0.00,22.4,27.0,"21:39:44",1
"23/08/12","21:50",0.0,27.3,74.3,997.2,313.8,1.2,3.1,338.7,0.00,22.4,27.0,"21:48:48",1
"23/08/12","22:00",0.0,27.3,74.7,997.0,312.0,1.0,2.7,248.4,0.00,22.5,26.9,"21:58:48",1
"23/08/12","22:10",0.0,27.0,74.6,997.0,309.2,0.8,2.8,352.9,0.00,22.1,26.9,"22:00:16",1
"23/08/12","22:20",0.0,26.6,74.3,997.2,257.7,0.6,2.4,242.2,0.00,21.7,26.8,"22:18:40",1
"23/08/12","22:30",0.0,26.7,75.2,997.4,248.0,0.6,2.1,191.5,0.00,22.0,26.8,"22:29:44",1
"23/08/12","22:40",0.0,26.5,75.2,997.4,278.6,0.5,1.7,250.4,0.00,21.8,26.9,"22:30:24",1
"23/08/12","22:50",0.0,26.3,76.5,997.2,300.4,0.6,1.3,346.3,0.00,21.9,26.7,"22:42:16",1
"23/08/12","23:00",0.0,26.3,77.8,997.7,300.2,0.8,1.9,307.2,0.00,22.2,26.8,"22:54:08",1
"23/08/12","23:10",0.0,26.3,78.8,997.4,315.8,0.7,1.9,356.9,0.00,22.4,26.6,"23:06:48",1
"23/08/12","23:20",0.0,26.3,79.5,997.4,331.0,1.3,2.5,335.7,0.00,22.5,26.8,"23:12:24",1
"23/08/12","23:30",0.0,26.3,79.7,997.7,328.7,1.5,2.2,332.4,0.00,22.6,26.5,"23:24:24",1
"23/08/12","23:40",0.0,26.4,79.7,997.4,329.3,1.3,2.2,348.2,0.00,22.6,26.5,"23:38:40",1
"23/08/12","23:50",0.0,26.3,79.7,997.4,298.5,1.1,2.7,343.0,0.00,22.6,26.5,"23:41:36",1
"23/08/12","24:00",0.0,26.3,79.7,997.4,309.4,1.1,2.2,315.8,0.00,22.6,26.5,"23:59:20",1
